FW3353 Weather Reports


time (UTC)temp
C
wind
direction
speed
KPH
gust
KPH
rain 1hr
cm
rain 24hr
cm
rain mn
cm
humidity
%
barometer
mb
20260506051003 2 278 1.6 3.2 0.00 0.00 0.00 86 1015.0
20260506050503 2 279 0.0 3.2 0.00 0.00 0.00 85 1015.0
20260506045003 3 270 1.6 3.2 0.00 0.00 0.00 84 1015.0
20260506044503 3 269 0.0 3.2 0.00 0.00 0.00 84 1015.0
20260506044003 3 269 1.6 3.2 0.00 0.00 0.00 83 1015.0
20260506043524 3 269 1.6 3.2 0.00 0.00 0.00 82 1015.0
20260506043003 4 277 0.0 3.2 0.00 0.00 0.00 82 1015.0
20260506042503 4 294 1.6 4.8 0.00 0.00 0.00 82 1015.0
20260506042003 5 298 1.6 4.8 0.00 0.00 0.00 82 1015.0
20260506041503 5 301 1.6 4.8 0.00 0.00 0.00 82 1015.0
20260506041003 5 304 1.6 3.2 0.00 0.00 0.00 82 1015.0
20260506040524 5 302 1.6 3.2 0.00 0.00 0.00 82 1015.0
20260506040003 4 299 1.6 4.8 0.00 0.00 0.00 82 1015.1
20260506035503 4 296 1.6 4.8 0.00 0.00 0.00 82 1015.1
20260506035003 4 299 1.6 4.8 0.00 0.00 0.00 82 1015.1
20260506034524 4 301 3.2 4.8 0.00 0.00 0.00 82 1015.1
20260506034003 4 300 1.6 4.8 0.00 0.00 0.00 82 1015.1
20260506033503 4 298 1.6 6.4 0.00 0.00 0.00 82 1015.1
20260506033003 4 296 3.2 6.4 0.00 0.00 0.00 82 1015.2
20260506032503 4 294 1.6 4.8 0.00 0.00 0.00 81 1015.2
20260506032003 4 296 0.0 4.8 0.00 0.00 0.00 81 1015.3
20260506031503 5 298 1.6 6.4 0.00 0.00 0.00 81 1015.3
20260506031003 5 300 3.2 8.0 0.00 0.00 0.00 81 1015.2
20260506030503 5 300 3.2 8.0 0.00 0.00 0.00 81 1015.3
20260506030003 5 302 3.2 8.0 0.00 0.00 0.00 81 1015.3
20260506025503 5 305 4.8 8.0 0.00 0.00 0.00 80 1015.3
20260506025003 5 305 4.8 9.7 0.00 0.00 0.00 80 1015.4
20260506024503 5 304 4.8 9.7 0.00 0.00 0.00 80 1015.4
20260506024003 5 305 4.8 9.7 0.00 0.00 0.00 80 1015.4
20260506023524 5 307 4.8 9.7 0.00 0.00 0.00 80 1015.4
20260506023003 5 306 4.8 9.7 0.00 0.00 0.00 80 1015.5
20260506022503 5 305 3.2 9.7 0.00 0.00 0.00 80 1015.5
20260506022024 5 306 4.8 9.7 0.00 0.00 0.00 80 1015.5
20260506021503 5 308 4.8 9.7 0.00 0.00 0.00 80 1015.5
20260506021003 5 308 4.8 8.0 0.00 0.00 0.00 80 1015.5
20260506020503 5 309 3.2 9.7 0.00 0.00 0.00 80 1015.6
20260506020003 5 308 3.2 9.7 0.00 0.00 0.00 80 1015.5
20260506015503 5 304 3.2 8.0 0.00 0.00 0.00 80 1015.6
20260506015004 5 302 3.2 8.0 0.00 0.00 0.00 80 1015.7
20260506014504 5 308 4.8 9.7 0.00 0.00 0.00 80 1015.7
20260506014004 5 310 4.8 9.7 0.00 0.00 0.00 80 1015.7
20260506013504 5 309 4.8 9.7 0.00 0.00 0.00 80 1015.8
20260506013004 5 306 4.8 9.7 0.00 0.00 0.00 79 1015.8
20260506012504 5 303 3.2 8.0 0.00 0.00 0.00 79 1015.9
20260506012025 5 303 3.2 9.7 0.00 0.00 0.00 79 1015.9
20260506011525 5 301 3.2 9.7 0.00 0.00 0.00 79 1016.0
20260506011025 5 299 1.6 11.3 0.00 0.00 0.00 79 1016.0
20260506010504 5 308 3.2 11.3 0.00 0.00 0.00 79 1016.0
20260506010004 5 308 4.8 11.3 0.00 0.00 0.00 79 1016.0
20260506005504 5 308 4.8 12.9 0.00 0.00 0.00 79 1015.9
20260506005003 5 310 4.8 12.9 0.00 0.00 0.00 79 1016.0
20260506004504 5 309 4.8 9.7 0.00 0.00 0.00 79 1016.0
20260506004004 5 313 4.8 11.3 0.00 0.00 0.00 79 1016.0
20260506003504 5 314 4.8 14.5 0.00 0.00 0.00 79 1016.0
20260506003004 5 312 4.8 14.5 0.00 0.00 0.00 79 1016.1
20260506002504 5 314 6.4 12.9 0.00 0.00 0.00 79 1016.1
20260506002004 6 314 6.4 12.9 0.00 0.00 0.00 79 1016.1
20260506001504 6 313 4.8 9.7 0.00 0.00 0.00 79 1016.2
20260506001025 6 312 4.8 12.9 0.00 0.00 0.00 79 1016.2
20260506000504 6 313 6.4 12.9 0.00 0.00 0.00 79 1016.3
20260506000004 6 313 6.4 12.9 0.00 0.00 0.00 79 1016.3
20260505235504 6 307 6.4 12.9 0.00 0.00 0.00 79 1016.3
20260505235025 6 307 6.4 14.5 0.00 0.00 0.00 79 1016.4
20260505234504 6 308 6.4 14.5 0.00 0.00 0.00 78 1016.3
20260505234004 6 308 6.4 11.3 0.00 0.00 0.00 78 1016.4
20260505233504 6 307 6.4 14.5 0.00 0.00 0.00 78 1016.4
20260505233025 6 307 6.4 14.5 0.00 0.00 0.00 78 1016.4
20260505232504 6 308 6.4 11.3 0.00 0.00 0.00 78 1016.4
20260505232025 6 305 4.8 11.3 0.00 0.00 0.00 78 1016.4
20260505231504 6 304 3.2 9.7 0.00 0.00 0.00 78 1016.4
20260505231004 6 306 3.2 9.7 0.00 0.00 0.00 78 1016.4
20260505230504 6 307 4.8 9.7 0.00 0.00 0.00 77 1016.5
20260505230004 6 305 4.8 11.3 0.00 0.00 0.00 77 1016.5
20260505225504 6 302 4.8 11.3 0.00 0.00 0.00 77 1016.6
20260505225003 6 304 4.8 9.7 0.00 0.00 0.00 77 1016.5
20260505224503 6 304 4.8 9.7 0.00 0.00 0.00 76 1016.6
20260505224024 6 304 3.2 9.7 0.00 0.00 0.00 76 1016.6
20260505223503 6 306 4.8 12.9 0.00 0.00 0.00 76 1016.6
20260505223004 6 307 4.8 12.9 0.00 0.00 0.00 76 1016.5
20260505222503 6 306 4.8 9.7 0.00 0.00 0.00 75 1016.5
20260505222003 7 308 4.8 11.3 0.00 0.00 0.00 75 1016.5
20260505221503 7 312 6.4 14.5 0.00 0.00 0.00 75 1016.5
20260505221004 7 314 6.4 14.5 0.00 0.00 0.00 74 1016.5
20260505220503 7 314 6.4 12.9 0.00 0.00 0.00 74 1016.5
20260505220004 7 315 8.0 12.9 0.00 0.00 0.00 74 1016.5
20260505215503 7 316 8.0 12.9 0.00 0.00 0.00 73 1016.5
20260505215003 7 316 6.4 12.9 0.00 0.00 0.00 73 1016.5
20260505214503 7 320 6.4 12.9 0.00 0.00 0.00 72 1016.5
20260505214003 7 319 6.4 16.1 0.00 0.00 0.00 72 1016.4
20260505213524 7 318 6.4 16.1 0.00 0.00 0.00 71 1016.4
20260505213003 7 318 6.4 17.7 0.00 0.00 0.00 71 1016.4
20260505212503 8 313 6.4 17.7 0.00 0.00 0.00 70 1016.5
20260505212003 8 307 6.4 16.1 0.00 0.00 0.00 70 1016.5
20260505211503 8 305 6.4 16.1 0.00 0.00 0.00 69 1016.5
20260505211003 8 300 4.8 14.5 0.00 0.00 0.00 70 1016.4
20260505210503 8 299 4.8 11.3 0.00 0.00 0.00 70 1016.4
20260505210003 8 300 3.2 8.0 0.00 0.00 0.00 70 1016.4
20260505205504 8 305 4.8 11.3 0.00 0.00 0.00 70 1016.3
20260505205024 8 310 4.8 11.3 0.00 0.00 0.00 70 1016.3
20260505204524 8 314 4.8 11.3 0.00 0.00 0.00 69 1016.3
20260505204003 8 318 6.4 12.9 0.00 0.00 0.00 69 1016.2
20260505203524 8 319 6.4 12.9 0.00 0.00 0.00 69 1016.3
20260505203024 8 317 4.8 11.3 0.00 0.00 0.00 69 1016.2
20260505202524 9 319 4.8 11.3 0.00 0.00 0.00 70 1016.2
20260505202004 9 325 4.8 11.3 0.00 0.00 0.00 71 1016.2
20260505201504 9 321 4.8 11.3 0.00 0.00 0.00 71 1016.2
20260505201003 10 318 4.8 11.3 0.00 0.00 0.00 72 1016.1
20260505200503 10 322 4.8 11.3 0.00 0.00 0.00 71 1016.1
20260505200003 10 319 6.4 11.3 0.00 0.00 0.00 71 1016.0
20260505195503 10 319 8.0 16.1 0.00 0.00 0.00 71 1016.0
20260505195003 10 326 8.0 16.1 0.00 0.00 0.00 70 1016.0
20260505194524 10 332 8.0 17.7 0.00 0.00 0.00 69 1016.0
20260505194003 11 330 6.4 17.7 0.00 0.00 0.00 68 1015.9
20260505193524 11 327 6.4 14.5 0.00 0.00 0.00 68 1015.9
20260505193003 11 327 6.4 14.5 0.00 0.00 0.00 67 1015.8
20260505192503 11 326 4.8 14.5 0.00 0.00 0.00 66 1015.8
20260505192003 11 328 4.8 11.3 0.00 0.00 0.00 65 1015.7
20260505191503 12 334 6.4 11.3 0.00 0.00 0.00 64 1015.7
20260505191024 12 342 6.4 11.3 0.00 0.00 0.00 63 1015.6
20260505190503 12 336 6.4 11.3 0.00 0.00 0.00 63 1015.6
20260505190004 12 332 6.4 14.5 0.00 0.00 0.00 63 1015.6
20260505185503 12 341 8.0 14.5 0.00 0.00 0.00 63 1015.6
20260505185003 12 343 8.0 16.1 0.00 0.00 0.00 62 1015.6
20260505184503 12 341 6.4 16.1 0.00 0.00 0.00 62 1015.6
20260505184003 12 328 4.8 16.1 0.00 0.00 0.00 61 1015.6
20260505183503 13 321 4.8 11.3 0.00 0.00 0.00 61 1015.6
20260505183024 13 332 4.8 12.9 0.00 0.00 0.00 60 1015.6
20260505182503 12 330 4.8 12.9 0.00 0.00 0.00 61 1015.5
20260505182003 12 319 4.8 11.3 0.00 0.00 0.00 61 1015.6
20260505181503 12 325 6.4 14.5 0.00 0.00 0.00 60 1015.6
20260505181003 12 339 8.0 19.3 0.00 0.00 0.00 60 1015.6
20260505180503 12 337 6.4 19.3 0.00 0.00 0.00 60 1015.6
20260505180003 12 326 4.8 16.1 0.00 0.00 0.00 62 1015.6
20260505175503 12 334 6.4 14.5 0.00 0.00 0.00 61 1015.6
20260505175003 12 332 8.0 19.3 0.00 0.00 0.00 60 1015.6
20260505174503 12 332 9.7 20.9 0.00 0.00 0.00 59 1015.7
20260505174003 12 337 8.0 20.9 0.00 0.00 0.00 60 1015.7
20260505173503 12 342 9.7 19.3 0.00 0.00 0.00 61 1015.7
20260505173003 12 346 9.7 16.1 0.00 0.00 0.00 60 1015.7
20260505172503 12 345 8.0 14.5 0.00 0.00 0.00 61 1015.7
20260505172003 12 339 6.4 14.5 0.00 0.00 0.00 61 1015.7
20260505171503 12 332 6.4 14.5 0.00 0.00 0.00 60 1015.8
20260505171003 12 329 4.8 11.3 0.00 0.00 0.00 60 1015.8
20260505170503 12 331 4.8 12.9 0.00 0.00 0.00 59 1015.7
20260505170003 12 323 6.4 14.5 0.00 0.00 0.00 60 1015.8
20260505165524 12 323 8.0 14.5 0.00 0.00 0.00 61 1015.8
20260505165024 12 330 8.0 14.5 0.00 0.00 0.00 59 1015.8
20260505164503 12 335 8.0 14.5 0.00 0.00 0.00 58 1015.8
20260505164003 13 332 6.4 17.7 0.00 0.00 0.00 58 1015.8
20260505163503 13 331 6.4 17.7 0.00 0.00 0.00 59 1015.8
20260505163003 13 322 6.4 14.5 0.00 0.00 0.00 60 1015.7
20260505162503 13 317 8.0 16.1 0.00 0.00 0.00 59 1015.7
20260505162003 13 328 8.0 16.1 0.00 0.00 0.00 60 1015.7
20260505161503 12 340 8.0 14.5 0.00 0.00 0.00 60 1015.7
20260505161024 12 347 8.0 16.1 0.00 0.00 0.00 61 1015.8
20260505160503 12 350 8.0 16.1 0.00 0.00 0.00 60 1015.8
20260505153003 13 336 6.4 14.5 0.00 0.00 0.00 62 1015.9
20260505152503 13 328 6.4 12.9 0.00 0.00 0.00 62 1015.9
20260505152003 13 331 8.0 20.9 0.00 0.00 0.00 62 1016.0
20260505151503 13 320 8.0 20.9 0.00 0.00 0.00 63 1016.0
20260505151003 12 312 4.8 11.3 0.00 0.00 0.00 63 1015.9
20260505150503 12 312 4.8 9.7 0.00 0.00 0.00 65 1016.0
20260505140503 12 347 8.0 14.5 0.00 0.00 0.00 64 1016.2
20260505125025 11 339 9.7 16.1 0.00 0.00 0.00 71 1016.5
20260505124504 11 339 9.7 16.1 0.00 0.00 0.00 70 1016.5
20260505124004 11 335 8.0 16.1 0.00 0.00 0.00 69 1016.5
20260505123504 11 338 8.0 17.7 0.00 0.00 0.00 69 1016.5
20260505123025 11 337 8.0 17.7 0.00 0.00 0.00 69 1016.5
20260505122504 11 327 8.0 16.1 0.00 0.00 0.00 69 1016.5
20260505122004 11 321 8.0 16.1 0.00 0.00 0.00 71 1016.5
20260505121503 11 327 8.0 14.5 0.00 0.00 0.00 70 1016.5
20260505121004 11 326 8.0 20.9 0.00 0.00 0.00 71 1016.5
20260505120504 11 334 8.0 20.9 0.00 0.00 0.00 72 1016.4
20260505120004 11 338 6.4 14.5 0.00 0.00 0.00 71 1016.5
20260505115504 11 334 6.4 12.9 0.00 0.00 0.00 71 1016.5
20260505115025 11 345 8.0 17.7 0.00 0.00 0.00 71 1016.5
20260505114524 11 343 9.7 17.7 0.00 0.00 0.00 71 1016.5
20260505114004 11 333 6.4 16.1 0.00 0.00 0.00 71 1016.5
20260505113503 11 332 6.4 12.9 0.00 0.00 0.00 72 1016.5
20260505113004 11 330 6.4 14.5 0.00 0.00 0.00 72 1016.4
20260505112524 11 326 6.4 14.5 0.00 0.00 0.00 72 1016.5
20260505112024 11 326 6.4 12.9 0.00 0.00 0.00 72 1016.5
20260505111504 11 341 6.4 12.9 0.00 0.00 0.00 72 1016.6
20260505111003 11 341 8.0 12.9 0.00 0.00 0.00 71 1016.6
20260505110504 11 334 8.0 14.5 0.00 0.00 0.00 73 1016.6
20260505102004 10 324 3.2 9.7 0.00 0.00 0.00 77 1016.7
20260505101503 10 316 3.2 9.7 0.00 0.00 0.00 78 1016.7
20260505101003 10 318 3.2 8.0 0.00 0.00 0.00 78 1016.7
20260505100524 10 328 4.8 11.3 0.00 0.00 0.00 79 1016.8
20260505100024 10 332 4.8 11.3 0.00 0.00 0.00 80 1016.7
20260505095503 9 338 6.4 14.5 0.00 0.00 0.00 81 1016.7
20260505095004 10 337 8.0 14.5 0.00 0.00 0.00 81 1016.8
20260505094504 10 336 8.0 16.1 0.00 0.00 0.00 80 1016.8
20260505094004 10 339 9.7 22.5 0.00 0.00 0.00 78 1016.8
20260505093504 10 338 11.3 22.5 0.00 0.00 0.00 77 1016.8
20260505093004 11 333 8.0 22.5 0.00 0.00 0.00 75 1016.7
20260505092504 11 320 4.8 9.7 0.00 0.00 0.00 75 1016.7
20260505092003 11 316 4.8 9.7 0.00 0.00 0.00 74 1016.6
20260505091504 11 325 4.8 9.7 0.00 0.00 0.00 74 1016.6
20260505091024 11 340 4.8 11.3 0.00 0.00 0.00 74 1016.5
20260505090503 11 330 4.8 11.3 0.00 0.00 0.00 74 1016.5
20260505090024 11 322 4.8 9.7 0.00 0.00 0.00 75 1016.4
20260505085504 11 334 6.4 11.3 0.00 0.00 0.00 74 1016.3
20260505085025 11 343 8.0 16.1 0.00 0.00 0.00 75 1016.4
20260505084503 11 343 8.0 16.1 0.00 0.00 0.00 76 1016.4
20260505084024 11 331 6.4 11.3 0.00 0.00 0.00 76 1016.4
20260505083524 11 316 4.8 11.3 0.00 0.00 0.00 76 1016.4
20260505083004 11 315 4.8 11.3 0.00 0.00 0.00 75 1016.4
20260505082503 11 316 3.2 8.0 0.00 0.00 0.00 76 1016.4
20260505082003 11 314 4.8 8.0 0.00 0.00 0.00 76 1016.4
20260505081524 11 310 3.2 11.3 0.00 0.00 0.00 79 1016.4
20260505081004 11 304 3.2 11.3 0.00 0.00 0.00 79 1016.4
20260505080524 11 303 3.2 9.7 0.00 0.00 0.00 80 1016.5
20260505080003 10 302 3.2 9.7 0.00 0.00 0.00 81 1016.4
20260505075503 10 298 3.2 9.7 0.00 0.00 0.00 81 1016.4
20260505075024 10 297 3.2 9.7 0.00 0.00 0.00 82 1016.4
20260505074524 10 299 1.6 6.4 0.00 0.00 0.00 83 1016.4
20260505074003 10 302 1.6 6.4 0.00 0.00 0.00 83 1016.4
20260505073503 10 303 1.6 6.4 0.00 0.00 0.00 84 1016.4
20260505073003 9 308 1.6 8.0 0.00 0.00 0.00 84 1016.3
20260505072503 9 313 3.2 11.3 0.00 0.00 0.00 85 1016.4
20260505072003 9 310 4.8 11.3 0.00 0.00 0.00 84 1016.5
20260505071503 9 307 4.8 11.3 0.00 0.00 0.00 85 1016.5
20260505071003 9 306 3.2 11.3 0.00 0.00 0.00 86 1016.5
20260505070503 9 307 4.8 14.5 0.00 0.00 0.00 86 1016.6
20260505070004 9 304 6.4 14.5 0.00 0.00 0.00 86 1016.6
20260505065503 9 299 3.2 12.9 0.00 0.00 0.00 86 1016.6
20260505065003 8 298 3.2 9.7 0.00 0.00 0.00 87 1016.5
20260505064503 8 296 3.2 9.7 0.00 0.00 0.00 87 1016.5
20260505064003 8 293 3.2 11.3 0.00 0.00 0.00 87 1016.5
20260505063503 8 300 4.8 11.3 0.00 0.00 0.00 87 1016.4
20260505063003 8 302 3.2 9.7 0.00 0.00 0.00 87 1016.5
20260505062503 8 299 3.2 8.0 0.00 0.00 0.00 87 1016.5
20260505062003 8 306 3.2 8.0 0.00 0.00 0.00 87 1016.4
20260505061503 8 308 1.6 8.0 0.00 0.00 0.00 87 1016.4
20260505061003 8 308 3.2 9.7 0.00 0.00 0.00 87 1016.4
20260505060524 8 306 6.4 11.3 0.00 0.00 0.00 87 1016.4
20260505060004 8 304 4.8 11.3 0.00 0.00 0.00 87 1016.4
20260505055503 8 300 3.2 8.0 0.00 0.00 0.00 87 1016.4
20260505055003 8 304 3.2 6.4 0.00 0.00 0.00 87 1016.4
20260505054503 8 305 3.2 9.7 0.00 0.00 0.00 87 1016.4
20260505054003 8 298 3.2 9.7 0.00 0.00 0.00 87 1016.4
20260505053503 8 296 3.2 9.7 0.00 0.00 0.00 87 1016.4
20260505053003 8 295 3.2 9.7 0.00 0.00 0.00 87 1016.4
20260505052503 8 293 1.6 9.7 0.00 0.00 0.00 87 1016.4
20260505052003 8 296 1.6 4.8 0.00 0.00 0.00 87 1016.5